Location: Brede
(50.9167°N, 0.6000°E)
Time: 17:21:25
(UTC+00:00)

CZ-2C R/B - Pass Details

Date: 08 August 2020
Orbit: 668 x 784 km, 98.2° (Epoch: 23 September)

Event Time Altitude Azimuth Distance (km) Brightness Sun altitude
Rises 03:27:57 0° 21° (NNE) 3,028 6.8 -9.5°
Reaches altitude 10° 03:30:22 10° 30° (NNE) 2,107 6.1 -9.2°
Maximum altitude 03:34:33 34° 96° (E) 1,102 3.8 -8.7°
Drops below altitude 10° 03:38:44 10° 162° (SSE) 2,109 4.6 -8.2°
Sets 03:41:09 0° 171° (S) 3,030 5.3 -7.9°
